Miscellaneous Local Product
Issued by NWS Hastings, NE

Home | Current Version | Previous Version | Text Only | Print | Product List | Glossary Off
Versions: 1 2 3 4 5 6 7 8 9 10 11 12 13 14 15 16 17 18 19 20 21 22 23 24 25 26 27 28 29 30 31 32 33 34 35 36 37 38 39 40 41 42 43 44 45 46 47 48 49 50

000
AXUS43 KGID 260602
MISGRI

GID CWA HOURLY WEATHER ROUNDUP
NATIONAL WEATHER SERVICE HASTINGS NE
100 AM CDT THU APR 26 2018

NOTE: "FAIR" INDICATES FEW OR NO CLOUDS BELOW 12,000 FEET WITH NO
SIGNIFICANT WEATHER AND/OR OBSTRUCTIONS TO VISIBILITY.

...SOUTH CENTRAL NEBRASKA...

CITY           SKY/WX    TMP DP  RH WIND       PRES   REMARKS
GRAND ISLAND   CLOUDY    42  34  73 S9        29.99F
KEARNEY        CLOUDY    43  35  73 S10       29.99F
HASTINGS       CLOUDY    40  34  79 S6        30.01S
ORD            CLOUDY    41  33  73 S7        29.96S
YORK             N/A     37  37 100 SW7       30.01S WCI  32
AURORA         CLOUDY    42  34  74 S10       29.99F
LEXINGTON      MOCLDY    44  35  71 S7        29.98S
HOLDREGE       CLOUDY    42  36  79 S8        29.99F
HEBRON         CLOUDY    42  38  86 SW5       30.01F

...NEBRASKA PANHANDLE...

CITY           SKY/WX    TMP DP  RH WIND       PRES   REMARKS
CHADRON        CLOUDY    55  28  35 NE12      29.95R
ALLIANCE       CLOUDY    38  32  79 S8        29.90S WCI  32
SCOTTSBLUFF    MOCLDY    52  33  48 NW10      29.94R
SIDNEY         MOCLDY    42  32  67 S9        29.95F

...WESTERN AND NORTH CENTRAL NEBRASKA...

CITY           SKY/WX    TMP DP  RH WIND       PRES   REMARKS
VALENTINE      CLOUDY    51  31  46 SW10      29.90R
AINSWORTH      CLOUDY    46  33  59 S10       29.90F
ONEILL         MOCLDY    46  34  64 S8        29.95S
BROKEN BOW     CLOUDY    43  34  70 S7        29.96S
IMPERIAL       MOCLDY    45  34  65 S13       29.97F
NORTH PLATTE   CLOUDY    45  32  60 S12       29.95F
MCCOOK         PTCLDY    43  34  70 S8        29.98F

...EASTERN NEBRASKA...

CITY           SKY/WX    TMP DP  RH WIND       PRES   REMARKS
NORFOLK        CLOUDY    43  33  68 S10       29.97R
SO SIOUX CITY  CLOUDY    47  32  56 CALM      29.96F
TEKAMAH        CLOUDY    39  30  70 SW3       29.97F
COLUMBUS       PTCLDY    46  34  62 S10       29.99F
ALBION         CLOUDY    42  32  67 CALM      29.98S
OMAHA EPPLEY   CLOUDY    48  35  60 SE3       29.99S
MILLARD        CLOUDY    47  35  61 CALM      29.99F
LINCOLN        CLOUDY    45  34  65 W7        30.01F
NEBRASKA CITY  CLOUDY    42  37  83 W12       30.00S
BEATRICE       CLOUDY    37  34  89 CALM      30.02S
FALLS CITY     CLEAR     40  35  83 CALM      30.00F

...NORTHERN KANSAS...

CITY           SKY/WX    TMP DP  RH WIND       PRES   REMARKS
GOODLAND       CLEAR     43  31  62 S16       29.99F
HILL CITY      CLOUDY    42  35  76 VRB3      30.02F
NORTON         CLEAR     45  36  70 S7        29.99F
PHILLIPSBURG   CLEAR     43  36  75 S3        30.02S
SMITH CENTER   CLEAR     36  34  93 SE6       30.03F WCI  31
BELOIT         CLEAR     37  36  93 CALM      30.03F
HAYS           PTCLDY    39  36  89 S5        30.04F
RUSSELL        CLOUDY    38  38 100 S8        30.03F WCI  32
CONCORDIA      CLOUDY    41  38  89 SW9       30.02F
SALINA         CLEAR     41  40  96 SW7       30.05R
TOPEKA         CLEAR     44  44 100 CALM      30.02F



USA.gov is the U.S. government's official web portal to all federal, state and local government web resources and services.